OneWeb SL0262

operational
NORAD ID: 48980 Int'l Des: 2021-060 Owner: ONEWEBN Country: UK Constellation: oneweb
LEOCIRCULARPOLARONEWEB_TYPE

Über OneWeb SL0262

Beschreibung wird geladen...

Live-Position

3D-Globus wird geladen...

Nächste Überflüge

Höhenverlauf

Altitude vs Time

uPlot chart will show altitude changes over time

Zweizeiliger Elementsatz

1 48980U 21060P 25258.76639923 .00000017 00000-0 10183-4 0 9990
2 48980 87.8981 283.4611 0001692 102.0228 258.1093 13.16595981203517
Epoch: 15. Sept. 2025 • Age: 14 hours

Aktueller Status

Höhe 1212.8 km
Geschwindigkeit 7.25 km/s
Subsatellitenpunkt -37.22°S, 154.24°E
Startdatum 1. Juli 2021
Alter 4.2 years
Typ internet

Technische Details

Klassifizierung Payload
Masse 148.00 kg
Trockenmasse 140.00 kg
Gesamtmasse 148.00 kg
Länge 1.30 m
Durchmesser 1.00 m
Spannweite 5.00 m
Form Trapezoid+2 pan
Hersteller ONEWUS
Bus-Typ ARROW
Phasenstatus In Orbit
Besitzer/Staat ONEWEBN/UK

Große Konstellationen

Loading constellations...